Yeovilton, United Kingdom

3:50 AM GMT on December 14, 2017 (GMT +0000)
Yeovil Radar Navy

Weather History for EGDY - September, 2013

Change the Weather History Date:

Wednesday, September 25, 2013

  Actual Average Record
Temperature  
Mean Temperature 61 °F -  
Max Temperature 70 °F 58 °F 70 °F (2013)
Min Temperature 52 °F 45 °F 39 °F (2002)
Degree Days  
Heating Degree Days 4    
Growing Degree Days 11 (Base 50)    
Moisture  
Dew Point 58 °F    
Average Humidity 90    
Maximum Humidity 100    
Minimum Humidity 54    
Precipitation  
Precipitation 0.43 in - - ()
Sea Level Pressure  
Sea Level Pressure 29.87 in    
Wind  
Wind Speed 2 mph ()    
Max Wind Speed 8 mph    
Max Gust Speed -    
Visibility 2.5 miles    
Events Fog , Rain    
Averages and records for this station are not official NWS values.
T = Trace of Precipitation, MM = Missing Value Source: Averaged Metar Reports

Daily Weather History Graph

Daily Weather History Graph

Search for Another Location

Airport or City:

Trip Planner

Search our weather history database for the weather conditions in past years. The results will help you decide how hot, cold, wet, or windy it might be!

Date:

Astronomy

Sep. 25, 2013 Rise Set
Actual Time 7:01 AM BST 7:01 PM BST
Civil Twilight 6:28 AM BST 7:34 PM BST
Nautical Twilight 5:49 AM BST 8:13 PM BST
Astronomical Twilight 5:09 AM BST 8:53 PM BST
Moon 10:21 PM BST (9/25) 1:30 PM BST (9/25)
Length of Visible Light 13h 06m
Length of Day
12h 00m
Waning Gibbous, 66% of the Moon is Illuminated
Sep 25
Waning Gibbous
Sep 27
Last Quarter
Oct 5
New
Oct 12
First Quarter
Oct 19
Full

Hourly Weather History & Observations

Time (BST) Temp. Dew Point Humidity Pressure Visibility Wind Dir Wind Speed Gust Speed Precip Events Conditions
12:50 AM 57 °F 56 °F 97% 29.92 in 1 mi NE 1.2 mph - -   Mist
12:50 AM 57.2 °F 57.2 °F 100% 29.92 in 1.2 mi NE 1.2 mph - N/A   Mostly Cloudy
1:50 AM 55.4 °F 55.4 °F 100% 29.92 in 0.3 mi Calm Calm - N/A Fog Patches of Fog
2:50 AM 55.4 °F 55.4 °F 100% 29.89 in 0.3 mi ESE 2.3 mph - N/A Fog Patches of Fog
3:50 AM 54 °F 54 °F 100% 29.89 in 0 mi ESE 1.2 mph - - Fog Partial Fog
3:50 AM 55.4 °F 53.6 °F 94% 29.89 in 0.1 mi ESE 1.2 mph - N/A Fog Fog
4:50 AM 53.6 °F 53.6 °F 100% 29.86 in 0.2 mi South 1.2 mph - N/A Fog Patches of Fog
5:50 AM 53.6 °F 53.6 °F 100% 29.86 in 0.4 mi NNE 2.3 mph - N/A Fog Patches of Fog
6:50 AM 53 °F 53 °F 99% 29.86 in 0 mi SSW 2.3 mph - - Fog Patches of Fog
6:50 AM 53.6 °F 53.6 °F 100% 29.86 in 0.5 mi SSW 2.3 mph - N/A Fog Patches of Fog
7:50 AM 53.6 °F 53.6 °F 100% 29.86 in 0.9 mi West 1.2 mph - N/A Fog Fog
8:50 AM 57.2 °F 57.2 °F 100% 29.86 in 0.9 mi North 1.2 mph - N/A Fog Fog
9:16 AM 59.0 °F 57.2 °F 94% 29.86 in 1.4 mi ENE 2.3 mph - N/A Fog Fog
9:50 AM 61 °F 58 °F 85% 29.88 in 2 mi East 3.5 mph - - Fog Light Fog
9:50 AM 60.8 °F 57.2 °F 88% 29.86 in 2.5 mi East 3.5 mph - N/A Fog Fog
10:50 AM 64.4 °F 57.2 °F 77% 29.86 in 3.7 mi East 4.6 mph - N/A   Haze
11:50 AM 68.0 °F 57.2 °F 68% 29.86 in 5.6 mi SE 3.5 mph - N/A   Haze
12:50 PM 70 °F 57 °F 54% 29.86 in 6 mi SSE 3.5 mph - -   Scattered Clouds
12:50 PM 69.8 °F 57.2 °F 64% 29.86 in 6.2 mi SSE 3.5 mph - N/A   Mostly Cloudy
1:50 PM 68.0 °F 55.4 °F 64% 29.83 in 6.2 mi South 4.6 mph - N/A   Mostly Cloudy
2:50 PM 69.8 °F 57.2 °F 64% 29.83 in 5.6 mi SSW 2.3 mph - N/A   Haze
3:19 PM 66.2 °F 60.8 °F 83% 29.83 in 4.3 mi SSW 8.1 mph - N/A Rain Rain Showers
3:50 PM 65 °F 61 °F 82% 29.85 in 4 mi SW 5.8 mph - - Rain Light Rain Showers
3:50 PM 64.4 °F 60.8 °F 88% 29.83 in 4.3 mi SW 5.8 mph - N/A Rain Light Rain Showers
4:05 PM 64.4 °F 60.8 °F 88% 29.83 in 2.8 mi SW 4.6 mph - N/A Rain Light Rain Showers
4:10 PM 64.4 °F 60.8 °F 88% 29.86 in - SW 4.6 mph - N/A Rain Light Rain Showers
4:50 PM 62.6 °F 60.8 °F 94% 29.83 in 1.7 mi West 3.5 mph - N/A Rain Rain Showers
5:09 PM 62.6 °F 60.8 °F 94% 29.83 in 1.2 mi SW 3.5 mph - N/A Rain Rain Showers
5:50 PM 60.8 °F 60.8 °F 100% 29.86 in 1.9 mi SW 3.5 mph - N/A Rain Rain
6:50 PM 60 °F 59 °F 96% 29.86 in 3 mi South 1.2 mph - - Rain Light Rain
6:50 PM 60.8 °F 59.0 °F 94% 29.86 in 3.1 mi South 1.2 mph - N/A Rain Light Rain
7:50 PM 60.8 °F 59.0 °F 94% 29.86 in 3.1 mi ENE 2.3 mph - N/A Rain Light Rain
8:50 PM 60.8 °F 60.8 °F 100% 29.86 in - SE 2.3 mph - N/A   Mostly Cloudy
9:50 PM 61 °F 60 °F 96% 29.90 in 2 mi NE 2.3 mph - -   Mist
9:50 PM 60.8 °F 60.8 °F 100% 29.89 in 1.7 mi NE 2.3 mph - N/A   Mostly Cloudy
10:50 PM 60.8 °F 59.0 °F 94% 29.89 in 6.2 mi East 4.6 mph - N/A   Mostly Cloudy
11:50 PM 60.8 °F 59.0 °F 94% 29.89 in 2.5 mi ENE 1.2 mph - N/A Rain Light Rain